Talkeetna, AK

1:47 AM AKST on November 19, 2017 (GMT -0900)
Talkeetna

Weather History for PATK - January, 2013

Change the Weather History Date:

Saturday, January 26, 2013

  Actual Average Record
Temperature  
Mean Temperature -5 °F -  
Max Temperature 8 °F 19 °F 46 °F (2017)
Min Temperature -18 °F 3 °F -40 °F (1973)
Degree Days  
Heating Degree Days 70    
Moisture  
Dew Point -19 °F    
Average Humidity 49    
Maximum Humidity 74    
Minimum Humidity 35    
Precipitation  
Precipitation 0.00 in - - ()
Sea Level Pressure  
Sea Level Pressure 29.81 in    
Wind  
Wind Speed 4 mph (North)    
Max Wind Speed 8 mph    
Max Gust Speed -    
Visibility 10 miles    
Events      
Averages and records for this station are not official NWS values.
T = Trace of Precipitation, MM = Missing Value Source: NWS Daily Summary

Daily Weather History Graph

Daily Weather History Graph

Search for Another Location

Airport or City:

Trip Planner

Search our weather history database for the weather conditions in past years. The results will help you decide how hot, cold, wet, or windy it might be!

Date:

Astronomy

Jan. 26, 2013 Rise Set
Actual Time 9:42 AM AKST 4:44 PM AKST
Civil Twilight 8:47 AM AKST 5:39 PM AKST
Nautical Twilight 7:51 AM AKST 6:35 PM AKST
Astronomical Twilight 6:58 AM AKST 7:28 PM AKST
Moon 5:09 PM AKST (1/26) 8:50 AM AKST (1/26)
Length of Visible Light 8h 51m
Length of Day
7h 02m
Full, 100% of the Moon is Illuminated
Jan 26
Full
Jan 26
Full
Feb 3
Last Quarter
Feb 9
New
Feb 17
First Quarter

Hourly Weather History & Observations

Time (AKST) Temp. Windchill Dew Point Humidity Pressure Visibility Wind Dir Wind Speed Gust Speed Precip Events Conditions
12:53 AM 1.0 °F -10.3 °F -16.1 °F 45% 29.69 in 10.0 mi NNW 5.8 mph - N/A   Clear
1:53 AM 1.0 °F -12.9 °F -17.0 °F 43% 29.70 in 10.0 mi NNW 8.1 mph - N/A   Clear
3:53 AM -0.0 °F -7.9 °F -18.0 °F 43% 29.72 in 10.0 mi North 3.5 mph - N/A   Clear
4:53 AM 1.0 °F -8.7 °F -18.0 °F 41% 29.74 in 10.0 mi North 4.6 mph - N/A   Clear
5:53 AM -0.9 °F -12.7 °F -18.0 °F 44% 29.75 in 10.0 mi North 5.8 mph - N/A   Clear
6:53 AM -5.1 °F -15.8 °F -18.0 °F 54% 29.76 in 10.0 mi NE 4.6 mph - N/A   Clear
7:53 AM -5.1 °F -13.6 °F -18.9 °F 51% 29.76 in 10.0 mi NE 3.5 mph - N/A   Clear
8:53 AM -4.0 °F -14.6 °F -18.9 °F 49% 29.77 in 10.0 mi NNW 4.6 mph - N/A   Clear
9:53 AM -2.0 °F -13.9 °F -20.0 °F 42% 29.77 in 10.0 mi North 5.8 mph - N/A   Clear
10:53 AM -8.0 °F -16.9 °F -20.0 °F 56% 29.78 in 10.0 mi Variable 3.5 mph - N/A   Clear
11:53 AM 1.0 °F -8.7 °F -18.9 °F 39% 29.80 in 10.0 mi NNW 4.6 mph - N/A   Clear
12:53 PM 3.0 °F -8.0 °F -18.9 °F 35% 29.80 in 10.0 mi NNW 5.8 mph - N/A   Clear
1:53 PM 3.9 °F -6.9 °F -18.0 °F 36% 29.81 in 10.0 mi NNW 5.8 mph - N/A   Clear
2:53 PM 5.0 °F -2.1 °F -17.0 °F 36% 29.81 in 10.0 mi NNE 3.5 mph - N/A   Clear
3:53 PM 3.9 °F -3.4 °F -18.0 °F 36% 29.83 in 10.0 mi NW 3.5 mph - N/A   Clear
4:53 PM 1.9 °F -7.6 °F -18.0 °F 39% 29.84 in 10.0 mi North 4.6 mph - N/A   Clear
5:53 PM -5.1 °F - -18.0 °F 54% 29.86 in 10.0 mi Calm Calm - N/A   Clear
6:53 PM -2.9 °F -13.3 °F -18.9 °F 46% 29.87 in 10.0 mi NNE 4.6 mph - N/A   Clear
7:53 PM -4.0 °F - -18.9 °F 49% 29.89 in 10.0 mi Calm Calm - N/A   Clear
8:53 PM -13.0 °F - -22.0 °F 64% 29.90 in 10.0 mi Calm Calm - N/A   Clear
9:53 PM -15.0 °F - -22.0 °F 71% 29.91 in 10.0 mi Calm Calm - N/A   Clear
10:53 PM -18.0 °F - -24.0 °F 74% 29.92 in 10.0 mi Calm Calm - N/A   Clear
11:53 PM -18.0 °F - -25.1 °F 70% 29.93 in 10.0 mi Calm Calm - N/A   Mostly Cloudy